[[{"header":{"parameterUnit":"m.s-1","parameterCategory":1,"la1":30.2991,"la2":30.254,"lo1":-89.0895,"lo2":-89.0444,"dy":0.0017,"dx":0.0017,"nx":28,"ny":28,"refTime":"2023-11-03T09:00:00:Z","depth":0,"parameterNumber":2,"parameterNumberName":"U-component_of_WINDS"},"data":[0,0,0,0,0,0,0,0,0,0,0,0,0,0,0,0,0,0,0,0,0,0,0,0,0,0,0,0,0,0,0,0,0,0,0,0,0,0,0,0,0,0,0,0,0,0,0,0,0,0,0,0,0,0,0,0,0,0,-3.2873,-3.2875,0,-3.3003,-3.3004,-3.3006,-3.2909,-3.2905,-3.29,-3.2896,-3.3033,-3.304,-3.3048,0,0,0,0,0,0,0,0,0,0,0,0,0,-3.2545,-3.2551,-3.2873,-3.2875,-3.2876,-3.3002,-3.3004,-3.3006,-3.291,-3.2905,-3.2899,-3.2895,-3.303,-3.3039,-3.3048,0,0,0,0,0,0,0,0,0,0,0,0,0,-3.2682,-3.2554,-3.2873,-3.2843,-3.2842,-3.3002,-3.3004,-3.3006,-3.2911,-3.2904,-3.2898,-3.2892,-3.3027,-3.3038,-3.305,-3.3247,0,0,-3.3084,-3.3089,0,0,0,0,0,0,0,0,-3.2675,-3.2695,-3.2846,-3.2846,-3.2844,-3.2933,-3.2938,-3.3087,-3.2912,-3.2885,-3.2896,-3.2889,-3.3005,-3.3018,-3.3056,-3.3253,-3.3259,-3.3085,-3.3092,-3.3097,-3.31,0,0,0,0,0,0,0,-3.2665,-3.2688,-3.2924,-3.2848,-3.2847,-3.2825,-3.2837,-3.2966,-3.2979,-3.2887,-3.288,-3.2896,-3.3003,-3.3045,-3.3059,-3.3261,-3.3085,-3.3095,-3.3102,-3.3107,-3.3627,-3.3634,0,0,0,0,0,0,-3.2658,-3.2681,-3.292,-3.2928,-3.2742,-3.2836,-3.285,-3.2911,-3.2977,-3.2981,-3.2902,-3.2891,-3.3029,-3.3045,-3.3063,-3.3299,-3.3097,-3.3108,-3.3114,-3.362,-3.3628,-3.3636,0,0,0,0,0,0,-3.2651,-3.268,-3.2915,-3.2803,-3.2831,-3.2848,-3.2918,-3.2917,-3.2959,-3.2989,-3.2991,-3.2942,-3.3025,-3.3047,-3.3202,-3.3302,-3.3113,-3.3123,-3.3612,-3.3623,-3.3632,-3.3772,0,0,0,0,0,0,-3.2642,-3.2679,-3.2753,-3.2805,-3.2837,-3.3051,-3.2924,-3.2924,-3.2978,-3.2966,-3.3027,-3.3031,-3.3022,-3.3185,-3.3213,-3.3315,-3.3132,-3.3603,-3.3616,-3.3629,-3.3759,-3.3786,-3.381,0,0,0,0,0,-3.2631,-3.2788,-3.2757,-3.2787,-3.2931,-3.3057,-3.3076,-3.306,-3.2987,-3.3062,-3.3081,-3.3029,-3.3286,-3.3202,-3.3232,-3.3339,-3.3596,-3.3613,-3.3628,-3.3747,-3.3781,-3.3809,0,0,0,0,0,0,-3.2749,-3.2794,-3.2761,-3.2939,-3.2995,-3.304,-3.3135,-3.3096,-3.3175,-3.316,-3.3138,-3.3153,-3.3316,-3.3342,-3.3247,-3.3533,-3.343,-3.3453,-3.351,-3.3543,-3.3568,-3.3559,-3.3141,0,0,0,0,0,-3.2795,-3.2893,-3.2928,-3.3082,-3.3111,-3.3119,-3.3173,-3.3156,-3.3214,-3.3237,-3.3267,-3.3326,-3.342,-3.3482,-3.357,-3.3761,-3.3774,-3.385,-3.3875,-3.3896,-3.3917,-3.4021,-3.4055,-3.3688,-3.3688,-3.3687,0,0,-3.2893,-3.293,-3.2993,-3.3106,-3.3147,-3.325,-3.3139,-3.3253,-3.3329,-3.3255,-3.3402,-3.3427,-3.3491,-3.3665,-3.3743,-3.3692,-3.402,-3.3916,-3.3933,-3.3942,-3.404,-3.4075,-3.4106,-3.3698,-3.3696,-3.3695,0,0,-3.3123,-3.316,-3.3293,-3.3336,-3.3399,-3.3403,-3.3435,-3.3487,-3.35,-3.3647,-3.3594,-3.3684,-3.3846,-3.3894,-3.394,-3.4188,-3.4144,-3.4217,-3.4351,-3.4453,-3.4482,-3.4508,-3.4598,-3.463,-3.4237,-3.4237,-3.4238,0,-3.3237,-3.3388,-3.3366,-3.3484,-3.3536,-3.3471,-3.3606,-3.365,-3.3739,-3.3777,-3.3718,-3.392,-3.3958,-3.4143,-3.4204,-3.4242,-3.4279,-3.4211,-3.4479,-3.4505,-3.4528,-3.4614,-3.4648,-3.4246,-3.4245,-3.4244,-3.4243,0,-3.3526,-3.3632,-3.3731,-3.3818,-3.3881,-3.4007,-3.4005,-3.4072,-3.4049,-3.4059,-3.4211,-3.4254,-3.435,-3.4393,-3.4372,-3.4575,-3.4542,-3.4482,-3.4378,-3.4573,-3.4653,-3.4685,-3.4258,-3.4255,-3.4253,-3.4251,0,0,-3.3835,-3.3908,-3.3945,-3.3984,-3.4048,-3.413,-3.4253,-3.4346,-3.4404,-3.4468,-3.4571,-3.4709,-3.4654,-3.4706,-3.469,-3.4779,-3.4974,-3.4708,-3.4709,-3.4757,-3.5202,-3.5248,-3.5286,-3.4944,-3.495,-3.4955,-3.5197,0,-3.407,-3.4283,-3.4267,-3.4469,-3.4567,-3.4507,-3.4614,-3.4666,-3.4679,-3.4765,-3.4779,-3.4878,-3.4797,-3.4828,-3.4913,-3.4933,-3.5064,-3.4914,-3.5042,-3.5047,-3.503,-3.5328,-3.5377,-3.5603,-3.5228,-3.5233,-3.5237,0,-3.4373,-3.4446,-3.4658,-3.4707,-3.4748,-3.4845,-3.4928,-3.5011,-3.5069,-3.5072,-3.5129,-3.5098,-3.5224,-3.5115,-3.5288,-3.5187,-3.5238,-3.5255,-3.5263,-3.5276,-3.5155,-3.5351,-3.5675,-3.571,-3.5286,-3.5282,-3.5279,0,-3.4579,-3.4731,-3.4877,-3.4912,-3.4973,-3.5043,-3.5072,-3.5123,-3.518,-3.5253,-3.529,-3.5377,-3.5426,-3.5495,-3.5489,-3.541,-3.5665,-3.5555,-3.5672,-3.5673,-3.573,-3.5727,-3.6069,-3.5761,-3.576,-3.5759,-3.5759,0,-3.4844,-3.4976,-3.497,-3.5061,-3.5207,-3.5187,-3.5333,-3.5354,-3.54,-3.5495,-3.5447,-3.5537,-3.5522,-3.5613,-3.5608,-3.5753,-3.5775,-3.5782,-3.578,-3.5787,-3.5787,-3.5822,-3.5807,-3.5768,-3.5766,-3.5765,-3.5763,0,-3.5101,-3.5101,-3.5257,-3.5302,-3.5317,-3.5423,-3.5462,-3.5548,-3.5556,-3.5675,-3.5702,-3.5716,-3.5819,-3.5819,-3.5938,-3.5935,-3.6113,-3.6091,-3.6093,-3.609,-3.6207,-3.6197,-3.6585,-3.6636,-3.6293,-3.6296,-3.6299,0,-3.527,-3.537,-3.5426,-3.5485,-3.5518,-3.5614,-3.5671,-3.5655,-3.5717,-3.579,-3.5868,-3.5967,-3.6045,-3.6213,-3.6234,-3.6325,-3.6307,-3.6437,-3.632,-3.6325,-3.6311,-3.6305,-3.6316,-3.646,-3.6464,-3.6467,-3.647,0,-3.5572,-3.5567,-3.5651,-3.5736,-3.5806,-3.5872,-3.5933,-3.5984,-3.5975,-3.6047,-3.6152,-3.6213,-3.6333,-3.6432,-3.6519,-3.655,-3.651,-3.6506,-3.6538,-3.6548,-3.6545,-3.6549,-3.6157,-3.6497,-3.6495,-3.6493,-3.6491,-3.649,-3.5791,-3.5878,-3.593,-3.6026,-3.6069,-3.6128,-3.621,-3.6229,-3.6315,-3.6411,-3.6396,-3.6514,-3.6569,-3.6682,-3.672,-3.6812,-3.6767,-3.6813,-3.6825,-3.6837,-3.6851,-3.6529,-3.6828,-3.6827,-3.6826,-3.6826,-3.6825,0,-3.6092,-3.6122,-3.621,-3.6296,-3.6372,-3.6325,-3.639,-3.6456,-3.656,-3.6614,-3.6692,-3.6812,-3.6908,-3.6936,-3.7029,-3.7098,-3.7082,-3.7123,-3.7119,-3.7127,-3.6885,-3.6849,-3.7134,-3.7134,-3.7134,-3.7134,-3.7134,-3.7134,-3.6257,-3.6401,-3.6403,-3.6568,-3.6598,-3.6712,-3.6753,-3.6807,-3.685,-3.6986,-3.7065,-3.7082,-3.7127,-3.7222,-3.7309,-3.7314,-3.7352,-3.7401,-3.74,-3.7174,-3.7143,-3.7114,-3.708,-3.7409,-3.7409,-3.7633,-3.7636,-3.7637]},{"header":{"parameterUnit":"m.s-1","parameterCategory":1,"la1":30.2991,"la2":30.254,"lo1":-89.0895,"lo2":-89.0444,"dy":0.0017,"dx":0.0017,"nx":28,"ny":28,"refTime":"2023-11-03T09:00:00:Z","depth":0,"parameterNumber":3,"parameterNumberName":"V-component_of_WINDS"},"data":[0,0,0,0,0,0,0,0,0,0,0,0,0,0,0,0,0,0,0,0,0,0,0,0,0,0,0,0,0,0,0,0,0,0,0,0,0,0,0,0,0,0,0,0,0,0,0,0,0,0,0,0,0,0,0,0,0,0,-3.9136,-3.9136,0,-3.9145,-3.9145,-3.9145,-3.9094,-3.9093,-3.9091,-3.909,-3.9098,-3.91,-3.9101,0,0,0,0,0,0,0,0,0,0,0,0,0,-3.9072,-3.9073,-3.9136,-3.9136,-3.9136,-3.9145,-3.9145,-3.9145,-3.9094,-3.9093,-3.9091,-3.9089,-3.9098,-3.91,-3.9101,0,0,0,0,0,0,0,0,0,0,0,0,0,-3.9092,-3.9074,-3.9136,-3.9112,-3.911,-3.9145,-3.9145,-3.9145,-3.9095,-3.9093,-3.909,-3.9088,-3.9097,-3.9099,-3.9102,-3.916,0,0,-3.9109,-3.911,0,0,0,0,0,0,0,0,-3.9091,-3.9095,-3.9115,-3.9114,-3.9111,-3.9116,-3.9125,-3.915,-3.9095,-3.9101,-3.909,-3.9087,-3.9106,-3.9107,-3.9114,-3.916,-3.916,-3.9109,-3.9111,-3.9112,-3.9112,0,0,0,0,0,0,0,-3.909,-3.9094,-3.9139,-3.9116,-3.9113,-3.91,-3.91,-3.913,-3.9115,-3.91,-3.9096,-3.9098,-3.9104,-3.9112,-3.9114,-3.9161,-3.9109,-3.9111,-3.9113,-3.9113,-3.9252,-3.9254,0,0,0,0,0,0,-3.9092,-3.9093,-3.9139,-3.914,-3.9096,-3.9103,-3.9103,-3.9117,-3.9115,-3.9112,-3.91,-3.9096,-3.9109,-3.9111,-3.9114,-3.9179,-3.9112,-3.9114,-3.9115,-3.9249,-3.9252,-3.9255,0,0,0,0,0,0,-3.9091,-3.9097,-3.9139,-3.9115,-3.912,-3.9106,-3.9122,-3.9118,-3.9125,-3.9115,-3.9112,-3.911,-3.9107,-3.911,-3.9148,-3.9179,-3.9115,-3.9117,-3.9247,-3.925,-3.9253,-3.9312,0,0,0,0,0,0,-3.9089,-3.9096,-3.9119,-3.9116,-3.9121,-3.9174,-3.9124,-3.912,-3.913,-3.9124,-3.9124,-3.9121,-3.9106,-3.9145,-3.915,-3.9181,-3.9119,-3.9244,-3.9248,-3.9252,-3.9308,-3.9317,-3.9326,0,0,0,0,0,-3.9087,-3.9136,-3.9121,-3.9126,-3.9149,-3.9176,-3.9178,-3.916,-3.9132,-3.9154,-3.9147,-3.9121,-3.9175,-3.9149,-3.9155,-3.9187,-3.9242,-3.9247,-3.9252,-3.9303,-3.9315,-3.9325,0,0,0,0,0,0,-3.9143,-3.9135,-3.9118,-3.9168,-3.9173,-3.9167,-3.9194,-3.9173,-3.9186,-3.918,-3.9156,-3.9156,-3.9197,-3.9196,-3.9167,-3.9241,-3.9203,-3.921,-3.9241,-3.9252,-3.9261,-3.926,-3.9121,0,0,0,0,0,-3.9161,-3.9184,-3.9176,-3.922,-3.9223,-3.9209,-3.9219,-3.9204,-3.9208,-3.921,-3.9206,-3.921,-3.9228,-3.924,-3.9256,-3.9307,-3.9305,-3.9332,-3.9341,-3.9348,-3.9354,-3.9378,-3.9389,-3.9271,-3.9271,-3.9271,0,0,-3.9199,-3.9197,-3.9213,-3.9231,-3.9233,-3.9256,-3.9211,-3.9238,-3.9254,-3.9214,-3.9249,-3.9246,-3.9249,-3.9293,-3.9313,-3.9293,-3.9386,-3.9355,-3.9361,-3.9362,-3.9385,-3.9396,-3.9406,-3.9275,-3.9274,-3.9274,0,0,-3.9279,-3.9281,-3.9317,-3.932,-3.9323,-3.9312,-3.9321,-3.9318,-3.9314,-3.9349,-3.9319,-3.9338,-3.9369,-3.9372,-3.9377,-3.9456,-3.9432,-3.9462,-3.9508,-3.9533,-3.9542,-3.955,-3.9576,-3.9586,-3.9467,-3.9467,-3.9468,0,-3.9325,-3.9359,-3.9338,-3.9366,-3.9373,-3.9338,-3.9373,-3.9377,-3.9386,-3.9391,-3.937,-3.9406,-3.9406,-3.9449,-3.9468,-3.9475,-3.9482,-3.9461,-3.9542,-3.955,-3.9557,-3.9582,-3.9592,-3.9471,-3.9471,-3.947,-3.947,0,-3.9414,-3.9438,-3.9467,-3.9475,-3.9486,-3.9517,-3.95,-3.9513,-3.9496,-3.9488,-3.9522,-3.952,-3.9534,-3.9543,-3.9528,-3.9584,-3.9571,-3.9547,-3.9508,-3.9573,-3.9595,-3.9604,-3.9476,-3.9475,-3.9474,-3.9473,0,0,-3.9531,-3.9525,-3.9536,-3.9538,-3.9538,-3.9555,-3.9584,-3.9597,-3.9608,-3.9615,-3.9637,-3.9664,-3.964,-3.9646,-3.9631,-3.9652,-3.9711,-3.9624,-3.9624,-3.9639,-3.977,-3.9787,-3.9798,-3.9696,-3.9698,-3.9699,-3.9769,0,-3.9607,-3.9656,-3.9637,-3.9687,-3.9707,-3.9673,-3.9698,-3.97,-3.9692,-3.9707,-3.9699,-3.9717,-3.9686,-3.9689,-3.9709,-3.97,-3.9737,-3.9695,-3.9715,-3.9716,-3.9714,-3.981,-3.9829,-3.9895,-3.9778,-3.9779,-3.978,0,-3.9703,-3.9712,-3.9764,-3.9758,-3.9766,-3.9789,-3.9797,-3.9813,-3.9814,-3.9807,-3.9813,-3.9792,-3.9818,-3.978,-3.9815,-3.9787,-3.9794,-3.9791,-3.9793,-3.9793,-3.9751,-3.9811,-3.9916,-3.9925,-3.9794,-3.9793,-3.9792,0,-3.978,-3.9806,-3.9839,-3.9842,-3.9837,-3.9853,-3.9851,-3.985,-3.9858,-3.9866,-3.987,-3.9882,-3.9887,-3.9896,-3.9878,-3.9853,-3.9915,-3.9876,-3.9908,-3.9908,-3.9922,-3.9921,-4.0027,-3.9929,-3.9929,-3.9929,-3.9929,0,-3.9866,-3.9899,-3.9873,-3.9894,-3.9928,-3.9905,-3.994,-3.9935,-3.9933,-3.9951,-3.9923,-3.994,-3.9916,-3.9931,-3.9917,-3.9947,-3.995,-3.9944,-3.994,-3.9946,-3.9946,-3.9949,-3.9943,-3.9932,-3.9931,-3.993,-3.993,0,-3.9958,-3.9942,-3.9976,-3.9967,-3.9966,-3.9991,-3.9983,-4.0001,-3.9991,-4.0014,-4.0018,-4.0002,-4.0017,-4.0,-4.0015,-4.0005,-4.0045,-4.0035,-4.0045,-4.0041,-4.0073,-4.007,-4.0184,-4.0197,-4.0092,-4.0093,-4.0094,0,-4.0014,-4.0037,-4.003,-4.004,-4.004,-4.0056,-4.0064,-4.0041,-4.005,-4.0052,-4.0069,-4.0082,-4.0091,-4.0118,-4.0107,-4.0117,-4.0106,-4.0145,-4.0107,-4.0112,-4.0104,-4.0102,-4.0103,-4.0152,-4.0154,-4.0155,-4.0156,0,-4.0113,-4.0103,-4.0115,-4.0124,-4.0133,-4.0139,-4.0143,-4.0152,-4.0129,-4.014,-4.0155,-4.0162,-4.0176,-4.0189,-4.0196,-4.0193,-4.017,-4.0168,-4.0175,-4.0181,-4.0184,-4.0181,-4.0064,-4.0165,-4.0164,-4.0163,-4.0163,-4.0162,-4.0187,-4.0205,-4.0202,-4.0216,-4.0216,-4.0219,-4.0235,-4.0226,-4.0238,-4.0247,-4.0233,-4.0251,-4.0249,-4.0256,-4.0256,-4.0269,-4.0252,-4.0264,-4.0267,-4.0269,-4.0273,-4.0184,-4.0271,-4.0271,-4.027,-4.027,-4.027,0,-4.0282,-4.0278,-4.0291,-4.0296,-4.0306,-4.0283,-4.0285,-4.0295,-4.0311,-4.0311,-4.032,-4.0336,-4.0348,-4.0338,-4.0347,-4.0359,-4.0349,-4.0362,-4.036,-4.036,-4.0289,-4.028,-4.0371,-4.0371,-4.0371,-4.0371,-4.037,-4.037,-4.0333,-4.0362,-4.0352,-4.038,-4.0376,-4.0393,-4.0396,-4.0398,-4.0398,-4.0417,-4.0426,-4.0419,-4.0414,-4.0422,-4.0431,-4.0428,-4.0432,-4.0449,-4.0441,-4.0375,-4.0365,-4.0356,-4.0347,-4.045,-4.045,-4.0511,-4.0511,-4.0512]}]]